Location: Newark
(48.3453°N, 0.5589°E)
Time: 18:13:14
(UTC+00:00)

Altair - Visible Passes

Search period start: 25 January 2021 00:00
Search period end: 04 February 2021 00:00
Orbit: 1501 x 1682 km, 47.2° (Epoch: 24 January)

Date Brightness Start Highest point End Pass type
(mag) Time Alt. Az. Time Alt. Az. Time Alt. Az.
25 Jan 9.3 02:41:53 17° SE 02:43:18 17° SE 02:49:08 10° E visible
25 Jan 8.2 04:39:57 23° SSW 04:46:12 49° SE 04:55:48 10° ENE visible
25 Jan 7.8 06:40:24 10° WSW 06:50:32 81° SSE 07:00:43 10° E visible
26 Jan 9.4 02:18:36 15° ESE 02:18:36 15° ESE 02:23:26 10° E visible
26 Jan 8.3 04:16:40 31° SSW 04:21:04 46° SE 04:30:33 10° ENE visible
26 Jan 7.8 06:15:13 10° WSW 06:25:19 80° SSE 06:35:30 10° E visible
27 Jan 9.6 01:55:13 13° ESE 01:55:13 13° ESE 01:57:37 10° E visible
27 Jan 8.3 03:53:16 37° S 03:55:57 44° SE 04:05:18 10° ENE visible
27 Jan 7.8 05:51:18 15° WSW 06:00:05 78° SSE 06:10:16 10° E visible
28 Jan 8.3 03:29:45 40° SSE 03:30:51 41° SE 03:40:02 10° ENE visible
28 Jan 7.7 05:27:48 23° WSW 05:34:53 76° SSE 05:45:04 10° E visible
29 Jan 8.4 03:06:10 38° SE 03:06:10 38° SE 03:14:45 10° ENE visible
29 Jan 7.7 05:04:12 32° WSW 05:09:41 74° SSE 05:19:50 10° E visible
30 Jan 8.6 02:42:31 33° ESE 02:42:31 33° ESE 02:49:28 10° ENE visible
30 Jan 7.7 04:40:33 42° SW 04:44:29 72° SSE 04:54:36 10° E visible
30 Jan 7.8 06:39:10 10° W 06:49:19 85° S 06:59:32 10° E visible
31 Jan 8.9 02:18:48 28° ESE 02:18:48 28° ESE 02:24:10 10° ENE visible
31 Jan 7.7 04:16:50 54° SW 04:19:17 70° SSE 04:29:23 10° ENE visible
31 Jan 7.7 06:14:51 13° W 06:24:05 85° S 06:34:19 10° E visible
01 Feb 9.2 01:55:03 22° E 01:55:03 22° E 01:58:50 10° ENE visible
01 Feb 7.6 03:53:04 64° S 03:54:06 67° SSE 04:04:09 10° ENE visible
01 Feb 7.7 05:51:05 20° W 05:58:52 85° S 06:09:05 10° E visible
02 Feb 9.4 01:31:15 17° E 01:31:15 17° E 01:33:30 10° E visible
02 Feb 7.7 03:29:16 64° SE 03:29:16 64° SE 03:38:55 10° ENE visible
02 Feb 7.6 05:27:17 27° W 05:33:38 85° S 05:43:52 10° E visible
03 Feb 9.7 01:07:25 12° E 01:07:25 12° E 01:08:08 10° E visible
03 Feb 7.9 03:05:26 56° ESE 03:05:26 56° ESE 03:13:41 10° ENE visible
03 Feb 7.6 05:03:27 36° W 05:08:24 85° S 05:18:38 10° E visible
